Weather History for Bartow, FL

Change the Weather History Date:

Thursday, September 11, 2014

  Actual Average Record
Temperature  
Mean Temperature 79 °F -  
Max Temperature 89 °F 90 °F 97 °F (1951)
Min Temperature 69 °F 72 °F 64 °F (1953)
Cooling Degree Days 14    
Growing Degree Days 29 (Base 50)    
Moisture  
Dew Point 72 °F    
Average Humidity 79    
Maximum Humidity 100    
Minimum Humidity 49    
Precipitation  
Precipitation 0.00 in - - ()
Sea Level Pressure  
Sea Level Pressure 30.01 in    
Wind  
Wind Speed 2 mph (ENE)    
Max Wind Speed 10 mph    
Max Gust Speed -    
Visibility 10 miles    
Events Thunderstorm    
Averages and records for this station are not official NWS values.
T = Trace of Precipitation, MM = Missing Value Source: NWS Daily Summary

Daily Weather History Graph

Daily Weather History Graph

Search for Another Location

Airport:

Trip Planner

Search our weather history database for the weather conditions in past years. The results will help you decide how hot, cold, wet, or windy it might be!

Date:

Astronomy

Sep. 11, 2014 Rise Set
Actual Time 7:10 AM EDT 7:36 PM EDT
Civil Twilight 6:46 AM EDT 8:00 PM EDT
Nautical Twilight 6:19 AM EDT 8:27 PM EDT
Astronomical Twilight 5:51 AM EDT 8:55 PM EDT
Moon 9:33 PM EDT (9/11) 9:48 AM EDT (9/11)
Length of Visible Light 13h 13m
Length of Day
12h 26m
Waning Gibbous, 91% of the Moon is Illuminated
Sep 11
Waning Gibbous
Sep 15
Last Quarter
Sep 24
New
Oct 1
First Quarter
Oct 8
Full

Hourly Weather History & Observations

Time (EDT) Temp. Heat Index Dew Point Humidity Pressure Visibility Wind Dir Wind Speed Gust Speed Precip Events Conditions
12:15 AM 73.4 °F - 73.4 °F 100% 30.03 in 10.0 mi Calm Calm - N/A   Clear
12:35 AM 73.4 °F - 73.4 °F 100% 30.03 in 10.0 mi Calm Calm - N/A   Clear
12:55 AM 73.4 °F - 73.4 °F 100% 30.03 in 10.0 mi Calm Calm - N/A   Clear
1:55 AM 73.4 °F - 73.4 °F 100% 30.02 in 10.0 mi Calm Calm - N/A   Clear
2:15 AM 71.6 °F - - N/A% 30.02 in 10.0 mi ESE 4.6 mph - N/A   Clear
2:35 AM 73.4 °F - - N/A% 30.01 in 10.0 mi ESE 4.6 mph - N/A   Clear
2:55 AM 73.4 °F - - N/A% 30.01 in 10.0 mi ESE 4.6 mph - N/A   Clear
3:15 AM 73.4 °F - - N/A% 30.00 in 10.0 mi ESE 3.5 mph - N/A   Clear
3:35 AM 73.4 °F - - N/A% 30.00 in 10.0 mi ESE 3.5 mph - N/A   Clear
3:55 AM 71.6 °F - - N/A% 30.00 in 10.0 mi Calm Calm - N/A   Clear
4:15 AM 73.4 °F - - N/A% 30.00 in 10.0 mi ENE 3.5 mph - N/A   Clear
4:35 AM 71.6 °F - - N/A% 30.00 in 10.0 mi NE 3.5 mph - N/A   Clear
4:55 AM 71.6 °F - - N/A% 30.00 in 10.0 mi Calm Calm - N/A   Clear
5:15 AM 71.6 °F - - N/A% 30.01 in 10.0 mi Calm Calm - N/A   Clear
5:35 AM 71.6 °F - - N/A% 30.01 in 10.0 mi Calm Calm - N/A   Clear
5:55 AM 71.6 °F - - N/A% 30.01 in 10.0 mi Calm Calm - N/A   Clear
6:15 AM 71.6 °F - - N/A% 30.01 in 10.0 mi Calm Calm - N/A   Clear
6:35 AM 71.6 °F - - N/A% 30.02 in 10.0 mi Calm Calm - N/A   Clear
6:55 AM 69.8 °F - - N/A% 30.03 in 10.0 mi Calm Calm - N/A   Clear
7:15 AM 71.6 °F - - N/A% 30.03 in 10.0 mi Calm Calm - N/A   Clear
7:50 AM 71.6 °F - - N/A% 30.04 in 10.0 mi Calm Calm - N/A   Partly Cloudy
8:50 AM 77.0 °F - 75.2 °F 94% 30.04 in 10.0 mi Calm Calm - N/A   Partly Cloudy
9:55 AM 80.6 °F 85.4 °F 73.4 °F 79% 30.05 in 10.0 mi Variable 3.5 mph - N/A   Partly Cloudy
10:50 AM 84.2 °F 88.4 °F 69.8 °F 62% 30.06 in 10.0 mi Variable 3.5 mph - N/A   Partly Cloudy
11:47 AM 84.2 °F 88.4 °F 69.8 °F 62% 30.05 in 10.0 mi Variable 3.5 mph - N/A   Scattered Clouds
12:47 PM 87.8 °F 92.6 °F 69.8 °F 55% 30.03 in 10.0 mi Variable 4.6 mph - N/A   Scattered Clouds
1:50 PM 87.8 °F 92.6 °F 69.8 °F 55% 30.01 in 10.0 mi North 8.1 mph - N/A   Scattered Clouds
3:50 PM 89.6 °F 93.4 °F 68.0 °F 49% 29.98 in 10.0 mi ENE 5.8 mph - N/A   Mostly Cloudy
3:55 PM 89.6 °F 93.4 °F 68.0 °F 49% 29.99 in 10.0 mi North 4.6 mph - N/A   Mostly Cloudy
4:45 PM 86.0 °F 89.4 °F 68.0 °F 55% 29.97 in 10.0 mi ENE 10.4 mph - N/A   Mostly Cloudy
5:35 PM 84.2 °F 89.6 °F 71.6 °F 66% 29.98 in 10.0 mi ENE 10.4 mph - N/A   Partly Cloudy
5:55 PM 82.4 °F 87.2 °F 71.6 °F 70% 29.98 in 10.0 mi East 5.8 mph - N/A   Mostly Cloudy
6:15 PM 82.4 °F 87.2 °F 71.6 °F 70% 29.98 in 10.0 mi East 6.9 mph - N/A   Mostly Cloudy
6:35 PM 82.4 °F 87.2 °F 71.6 °F 70% 29.99 in 10.0 mi East 5.8 mph - N/A   Scattered Clouds
6:55 PM 82.4 °F 87.2 °F 71.6 °F 70% 29.99 in 10.0 mi ENE 6.9 mph - N/A   Scattered Clouds
7:35 PM 80.6 °F 85.4 °F 73.4 °F 79% 29.99 in 10.0 mi NE 3.5 mph - N/A   Mostly Cloudy
7:55 PM 80.6 °F 85.4 °F 73.4 °F 79% 29.99 in 10.0 mi ENE 3.5 mph - N/A   Mostly Cloudy
8:15 PM 78.8 °F - 73.4 °F 83% 29.99 in 10.0 mi Calm Calm - N/A   Partly Cloudy
8:35 PM 78.8 °F - 73.4 °F 83% 29.98 in 10.0 mi Calm Calm - N/A   Clear
8:55 PM 80.6 °F 85.4 °F 73.4 °F 79% 29.98 in 10.0 mi WNW 3.5 mph - N/A   Clear
9:15 PM 80.6 °F 85.4 °F 73.4 °F 79% 29.98 in 10.0 mi NNW 3.5 mph - N/A Thunderstorm Clear
9:35 PM 78.8 °F - 73.4 °F 83% 29.99 in 10.0 mi Calm Calm - N/A   Clear
9:55 PM 75.2 °F - 75.2 °F 100% 30.02 in 10.0 mi Calm Calm - N/A   Clear
10:15 PM 75.2 °F - 75.2 °F 100% 30.03 in 10.0 mi ESE 4.6 mph - N/A   Clear
10:55 PM 75.2 °F - 75.2 °F 100% 30.04 in 10.0 mi Calm Calm - N/A   Clear
11:15 PM 77.0 °F - 73.4 °F 89% 30.04 in 10.0 mi NE 3.5 mph - N/A   Clear
11:35 PM 73.4 °F - 73.4 °F 100% 30.03 in 10.0 mi NNE 3.5 mph - N/A   Clear
11:55 PM 73.4 °F - 73.4 °F 100% 30.03 in 10.0 mi NNE 3.5 mph - N/A   Clear